Location: Aubrey
(33.3043°N, 96.9861°W)
Time: 04:01:20
(UTC+00:00)

Daily predictions for brighter satellites

Satellite Brightness Start Highest point End
(mag) Time Altitude Azimuth Time Altitude Azimuth Time Altitude Azimuth
SAR-Lupe-4 4.1 01:56:28 10° NNE 01:59:48 37° E 02:03:08 10° SSE
Cosmos 405 Rocket 2.8 01:57:01 10° S 02:00:47 58° E 02:04:39 10° NNE
Atlas Centaur 2 2.9 01:58:49 10° SSW 02:01:36 17° SSE 02:04:10 10° ESE
SJ-6B 3.3 01:58:36 10° SE 02:02:05 37° ENE 02:05:32 10° N
OAO 1 Rocket 4.5 01:57:28 10° WSW 02:02:47 68° SSE 02:08:06 10° E
ATLAS 2AS CENTAUR R/B 3.3 01:55:45 10° S 02:03:05 45° ESE 02:10:27 10° NE
Centaur D-1AR AC-39 3.5 01:58:55 10° WSW 02:05:44 23° SSW 02:08:53 10° SE
Cosmos 1437 Rocket 4.0 02:07:57 10° NNE 02:11:07 24° ENE 02:14:11 11° SE
Resurs 01 Rocket 3.4 02:09:08 10° ESE 02:11:55 17° ENE 02:14:42 10° NNE
Cosmos 1812 Rocket 3.8 02:09:28 10° N 02:13:57 77° W 02:18:23 10° S
Cosmos 1408 2.5 02:11:15 10° S 02:14:53 71° E 02:18:31 10° N
CZ-4 R/B 4.2 02:14:16 10° SW 02:17:12 19° W 02:20:10 10° NW
Cosmos 1825 Rocket 3.5 02:14:49 10° S 02:19:10 90° E 02:23:30 10° N
RESURS DK-1 4.0 02:17:56 11° SE 02:20:01 15° ESE 02:22:29 10° ENE
OAO 3 Copernicus 4.3 02:15:36 10° WSW 02:20:37 76° SSE 02:25:39 10° ENE
Cosmos-2242 2.9 02:18:46 10° N 02:23:03 76° E 02:27:16 10° S
CENTAUR R/B 3.3 02:21:04 10° NNW 02:29:35 77° ENE 02:37:50 13° SE
USA 267 3.9 02:25:17 10° ENE 02:30:53 30° SE 02:36:27 10° S
In-Cosmos 22 Rocket 4.4 02:25:49 10° SSW 02:31:05 72° W 02:36:25 10° N
Cosmos 44 Rocket 3.5 02:27:40 10° S 02:32:38 54° ESE 02:37:43 10° NE
Cosmos 1634 Rocket 4.0 02:30:51 10° N 02:37:07 72° E 02:43:18 10° SSE
Ariane Rocket 3.1 02:37:32 14° SSE 02:41:53 61° ENE 02:46:54 10° N
Helios 1A Rocket 3.3 02:37:56 10° S 02:41:53 61° W 02:45:54 10° NNW
ERS-2 2.0 02:38:37 10° NNE 02:42:16 84° E 02:45:54 10° SSW
IRS-1A Rocket 4.2 02:38:16 12° SSE 02:43:26 70° ENE 02:48:56 10° N
USA 238 DEB 3.9 02:36:55 10° NNW 02:44:22 89° WSW 02:50:46 16° SSE
USA 238 3.9 02:37:01 10° NNW 02:44:28 90° N 02:50:51 16° SSE
SEDSat Delta rocket 3.0 02:43:40 10° WSW 02:47:35 50° SSE 02:49:48 24° ESE
Cosmos 783 Rocket 4.4 02:42:57 10° S 02:48:04 64° ESE 02:53:13 10° NNE
OAO 2 Rocket 3.4 02:44:41 10° W 02:49:44 74° N 02:53:27 18° E
CZ-2C R/B 4.4 02:47:57 10° NNE 02:52:03 33° E 02:53:39 26° SE
Cosmos 1242 Rocket 2.7 02:49:04 10° N 02:52:34 49° E 02:53:50 32° SE
EPKM 3.8 02:52:20 10° SW 02:54:40 22° S 02:55:15 21° SSE
Cosmos 2221 3.3 02:51:02 10° NNE 02:54:56 33° E 02:56:12 28° ESE
USA 307 3.0 02:51:30 10° NW 02:55:45 65° NE 02:57:40 30° ESE
MOS 1 4.3 02:51:32 12° SSE 02:56:45 86° WSW 03:02:26 10° NNW
IGS 5A 3.4 03:04:14 32° SSE 03:06:04 71° ENE 03:10:12 10° N
Hubble Space Telescope 1.3 03:02:58 10° WSW 03:06:48 38° S 03:07:16 37° SSE
Cosmos 1697 Rocket 3.2 03:01:45 10° N 03:07:11 45° ENE 03:09:29 30° ESE
Cosmos 2082 Rocket 2.1 03:02:59 10° SSW 03:08:33 72° ESE 03:14:10 10° NNE
Cosmos 1606 3.5 03:07:51 10° NNE 03:11:14 33° ENE 03:11:14 33° ENE
SPOT 3 Rocket 3.6 03:09:28 31° SE 03:11:55 62° ENE 03:17:05 10° N
Cosmos 1833 Rocket 3.7 03:06:53 10° SW 03:12:17 47° WNW 03:17:44 10° N
USA 305 2.8 03:08:15 10° NW 03:12:26 77° SW 03:13:42 43° SSE
USA 308 2.8 03:08:21 10° NW 03:12:36 87° SW 03:13:51 45° SE
Resurs 1-3 4.4 03:10:54 15° S 03:14:17 47° W 03:18:32 10° NNW
Cosmos 773 Rocket 4.0 03:10:32 10° SSW 03:15:45 83° WNW 03:20:59 10° NNE
BREEZE-M R/B 3.7 03:06:48 10° SSW 03:15:57 41° SE 03:17:24 32° E
Cosmos 2151 3.8 03:23:49 34° ENE 03:23:49 34° ENE 03:27:08 10° NNE
SWAS 4.4 03:22:53 10° NNW 03:27:09 77° WSW 03:28:06 52° S
Cosmos 2058 4.4 03:25:43 10° SSW 03:29:31 35° W 03:33:22 10° NNW
Landsat 7 3.9 03:28:04 35° S 03:30:01 72° WSW 03:34:47 10° NNW
Cosmos 1092 Rocket 4.3 03:29:20 39° ESE 03:30:44 44° E 03:36:38 10° NNE
Centaur D AC-29 3.5 03:16:37 10° W 03:32:24 28° SW 03:35:11 21° S
Cosmos 2279 Rocket 4.3 03:27:14 10° NNW 03:33:19 63° W 03:37:33 21° SSW
Cosmos 1842 Rocket 3.6 03:31:00 10° N 03:35:29 80° W 03:36:31 53° S
GP-B 4.3 03:31:52 10° NNE 03:34:53 29° ENE 03:34:53 29° ENE
USA 306 3.5 03:32:23 10° NW 03:36:26 44° SW 03:36:55 42° SSW
Meteor 2-3 Rocket 4.0 03:36:26 44° ESE 03:36:54 45° E 03:42:15 10° NNE
Cosmos 1076 Rocket 3.7 03:39:35 44° SSW 03:40:49 69° W 03:45:09 10° N
ERS-1 Rocket 3.7 03:40:52 36° ENE 03:41:00 36° ENE 03:45:34 10° N
Cosmos 2369 3.7 03:36:37 10° NNW 03:42:14 64° ENE 03:43:19 53° ESE
Spot 2 Rocket 3.6 03:41:46 53° ESE 03:42:22 57° ENE 03:47:22 10° N
Resurs 01 Rocket 2.9 03:46:24 26° SW 03:48:04 36° W 03:52:10 10° NNW
Atlas Centaur 2 3.4 03:46:20 10° WSW 03:47:12 16° WSW 03:47:12 16° WSW
Cosmos 2026 Rocket 4.2 03:49:09 49° ESE 03:49:56 52° E 03:56:03 10° NNE
BREEZE M DEB (TANK) 3.1 03:47:44 10° WSW 03:50:25 68° NNW 04:02:11 10° ENE
Cosmos 1980 Rocket 2.3 03:47:48 10° NNW 03:53:20 57° ENE 03:53:52 54° E
ATLAS 2AS CENTAUR R/B 4.4 03:46:53 10° WSW 03:54:07 39° NW 04:01:20 10° NNE
Cosmos 1538 Rocket 4.1 03:53:58 36° SSW 03:56:07 72° WNW 04:01:20 10° NNE
Nadezhda 4 Rocket 4.3 03:52:26 22° SSW 03:56:23 61° W 04:02:30 10° N
RESURS DK-1 4.0 03:53:58 10° SW 03:57:43 32° WNW 04:01:29 10° N
Cosmos 158 Rocket 3.7 03:58:13 81° SE 03:58:22 83° ESE 04:03:34 10° NNE
Cosmos 2322 Rocket 4.3 03:58:06 10° NNE 04:00:27 13° NE 04:00:59 12° ENE
USA 245 4.3 04:00:12 51° SSW 04:01:33 69° W 04:06:41 10° NNW
Cosmos 1633 4.4 04:03:09 25° W 04:03:39 26° W 04:06:43 10° NNW
H-2A R/B 3.6 04:01:04 10° WSW 04:02:15 14° WSW 04:02:15 14° WSW
OAO 3 Copernicus 4.4 04:00:13 10° W 04:05:14 72° N 04:05:31 70° NNE
SPOT 1/Viking Rocket 4.3 04:09:03 40° SW 04:10:06 45° W 04:15:05 10° NNW
USA 267 3.7 04:07:36 10° NE 04:14:02 62° NW 04:20:27 10° WSW
ARIANE 5 R/B 3.1 04:16:06 61° NW 04:16:06 61° NW 04:19:55 10° NNW
ATLAS 3B R/B 3.1 04:11:46 10° NNW 04:18:49 55° ENE 04:20:00 50° E
SPOT 5 3.4 04:23:22 48° NNW 04:23:22 48° NNW 04:26:32 10° NNW
Cosmos 1428 Rocket 4.4 04:21:28 69° SSW 04:22:13 82° W 04:28:22 10° N
SL-16 R/B 3.5 04:21:12 10° N 04:25:32 27° NE 04:25:32 27° NE
Terra 2.7 04:43:36 46° NNW 04:43:36 46° NNW 04:47:00 10° NNW
Cosmos 371 Rocket 4.4 04:40:23 10° NNW 04:43:47 42° NW 04:43:47 42° NW
Meteor 1-26 Rocket 4.5 04:41:26 10° NNW 04:46:51 68° NW 04:46:51 68° NW
Cosmos 2360 Rocket 3.7 05:11:11 10° N 05:14:46 28° NE 05:14:46 28° NE
Cosmos 1980 Rocket 4.5 05:33:38 10° WNW 05:35:39 14° W 05:35:39 14° W
Cosmos 2322 Rocket 3.5 05:39:29 10° NNW 05:42:47 37° NNW 05:42:47 37° NNW
ATLAS 3B R/B 4.4 06:03:18 10° NW 06:07:15 24° W 06:07:15 24° W
SL-16 R/B 4.1 06:05:01 10° NW 06:07:23 22° WNW 06:07:23 22° WNW
Cosmos 2219 Rocket 3.9 06:08:03 10° N 06:11:15 28° NNE 06:11:15 28° NNE
COSMOS 2455 4.1 06:27:36 38° N 06:27:36 38° N 06:31:28 10° NNE
USA 234 4.0 06:28:20 46° NW 06:28:20 46° NW 06:32:43 10° NW
ATLAS 5 CENTAUR R/B 4.0 06:48:43 10° N 06:53:40 27° NE 06:54:21 27° ENE
Lacrosse 5 4.4 06:57:57 14° NE 06:57:57 14° NE 06:58:42 10° NE
Cosmos 2333 Rocket 3.9 06:49:01 10° NNW 06:51:37 28° NNW 06:51:37 28° NNW
Cosmos 2360 Rocket 4.5 06:55:14 10° NW 06:56:30 16° NW 06:56:30 16° NW
Resurs 1-4 Rocket 4.3 07:01:30 10° NE 07:03:26 18° ENE 07:03:26 18° ENE
Cosmos 2297 Rocket 3.5 07:18:52 36° NNE 07:18:52 36° NNE 07:22:07 10° NNE
NOSS 3-1 (C) 4.3 07:11:54 10° NNW 07:18:38 65° WNW 07:18:38 65° WNW
Cosmos 2227 Rocket 3.4 07:29:32 38° NNE 07:29:32 38° NNE 07:32:54 10° NNE
Cosmos 2237 Rocket 3.5 07:22:18 10° N 07:26:22 37° NNE 07:26:22 37° NNE
USA 229 DEB 4.0 07:23:47 10° NNW 07:30:34 73° N 07:30:34 73° N
USA 229 4.0 07:23:53 10° NNW 07:30:42 73° N 07:30:42 73° N
CZ-2D R/B 3.3 07:38:51 10° NNE 07:42:21 38° NE 07:42:21 38° NE
ADEOS II 3.9 07:41:38 10° NE 07:44:45 23° ENE 07:44:45 23° ENE
SL-16 R/B 4.2 07:46:57 10° N 07:51:22 23° ENE 07:53:48 17° E
NOSS 3-1 (A) 4.1 07:43:50 10° NNW 07:51:23 76° W 07:51:23 76° W
Cosmos 2263 Rocket 4.2 07:54:29 18° E 07:54:29 18° E 07:57:48 10° ENE
Cosmos 2344 4.2 08:04:50 40° ESE 08:05:16 41° ESE 08:12:03 10° NE
Cosmos 2219 4.4 08:16:32 34° NW 08:16:32 34° NW 08:20:45 10° N
Cosmos 2251 Rocket 4.2 08:36:33 49° NNW 08:36:33 49° NNW 08:40:40 10° N
Cosmos 2082 4.2 08:36:22 52° NW 08:36:22 52° NW 08:41:17 10° NNE
IDEFIX/ARIANE 42P 3.4 08:31:27 10° NNE 08:36:20 41° E 08:36:25 41° ESE
Lacrosse 5 3.5 08:37:08 25° NW 08:37:08 25° NW 08:41:10 10° NNE
ATLAS 5 CENTAUR R/B 3.5 08:32:36 10° NW 08:35:47 32° WNW 08:35:47 32° WNW
Cosmos 2184 Rocket 4.1 08:44:11 59° WNW 08:44:11 59° WNW 08:50:03 10° N
SL-16 R/B 2.6 08:45:15 59° WNW 08:45:15 59° WNW 08:50:43 10° NNW
Resurs 1-4 Rocket 3.2 08:40:42 10° N 08:44:30 32° NW 08:44:30 32° NW
USA 215 4.0 08:40:59 10° ENE 08:46:57 37° SE 08:47:58 35° SE
Cosmos 1733 Rocket 4.3 08:50:26 36° NNW 08:50:26 36° NNW 08:53:14 10° N
Cosmos 1295 Rocket 4.3 08:49:06 75° SSE 08:49:40 86° E 08:55:49 10° N
Cosmos 2154 Rocket 3.8 08:50:41 77° WSW 08:50:59 79° W 08:57:12 10° N
Cosmos 1190 Rocket 4.4 08:51:32 52° ESE 08:51:48 53° ESE 08:56:57 10° NNE
SL-8 R/B 4.2 08:53:11 53° N 08:53:11 53° N 08:57:24 10° NE
Cosmos 1140 Rocket 3.5 08:54:55 74° ESE 08:54:55 74° ESE 09:00:08 10° NNE
Cosmos 2297 Rocket 4.4 09:00:40 12° WNW 09:01:09 12° NW 09:03:21 10° NNW
MSX 4.0 09:02:53 10° NNE 09:08:34 64° ESE 09:10:10 46° SSE
Okean 2 3.7 09:05:17 10° N 09:09:08 64° NE 09:09:08 64° NE
Cosmos 2237 Rocket 4.3 09:07:15 10° NW 09:08:08 13° WNW 09:08:08 13° WNW
Cosmos 2227 Rocket 4.3 09:11:21 13° WNW 09:11:53 13° NW 09:14:35 10° NNW
ARIANE 5 R/B 3.5 09:08:42 10° NNE 09:13:37 43° E 09:15:40 29° SSE
Meteor 1-28 Rocket 4.3 09:16:25 37° NNW 09:16:25 37° NNW 09:18:47 10° NNW
ADEOS Rocket 3.3 09:16:08 42° W 09:16:08 42° W 09:20:45 10° NNW
Milstar 3 3.5 09:15:44 33° S 09:16:21 33° SSE 09:22:11 10° E
CZ-2D R/B 4.0 09:20:28 10° NNW 09:23:40 16° WNW 09:23:40 16° WNW
Cosmos 1782 Rocket 3.9 09:23:30 47° SE 09:24:24 58° E 09:28:40 10° NNE
ADEOS II 3.0 09:20:54 10° N 09:25:32 32° WNW 09:25:41 32° WNW
SL-8 Rocket 4.0 09:24:57 33° S 09:27:52 78° E 09:34:02 10° N
IRS-1D 4.0 09:24:19 10° N 09:28:56 40° WNW 09:29:10 39° WNW
Cosmos 2227 4.1 09:27:45 53° SW 09:29:00 71° WNW 09:34:37 10° NNE
Delta 142 4.3 09:29:33 49° SW 09:30:27 54° S 09:35:31 10° ESE
Cosmos 2366 rocket 4.3 09:26:46 24° SSE 09:30:39 66° E 09:36:57 10° NNE
NOSS 3-3 (A) 4.1 09:32:01 42° W 09:33:30 52° NW 09:39:33 10° NNE
ATLAS CENTAUR R/B 1.2 09:33:49 67° NNW 09:33:49 67° NNW 09:37:26 10° NNE
NOSS 3-3 (C) 4.1 09:32:09 42° W 09:33:36 52° NW 09:39:39 10° NNE
Cosmos 676 Rocket 4.0 09:32:40 44° S 09:34:25 81° ESE 09:39:46 10° NNE
IRS-1C 4.0 09:29:09 10° NNE 09:34:31 90° NW 09:36:27 41° SSW
Iridium 4 Rocket 4.1 09:29:16 10° NNW 09:34:37 46° W 09:35:32 42° WSW
SL-16 R/B 2.5 09:30:18 10° NW 09:35:34 42° WSW 09:35:34 42° WSW
Cosmos 2263 Rocket 2.6 09:36:12 41° WSW 09:37:29 48° WNW 09:42:58 10° N
Iridium 45 4.4 09:38:41 79° SSE 09:38:50 84° E 09:42:21 10° N
Cosmos 1461 4.5 09:41:30 24° WNW 09:42:01 25° NW 09:45:46 10° N
Cosmos 407 Rocket 4.3 09:41:19 32° W 09:42:07 34° WNW 09:46:55 10° N
Cosmos 1707 2.9 09:41:37 10° NNW 09:45:07 53° WNW 09:45:07 53° WNW
Spot 1 3.9 09:47:01 25° SSE 09:49:27 88° ENE 09:53:34 10° NNW
CZ-4C R/B 3.3 09:43:07 10° NNW 09:50:51 74° ENE 09:59:29 10° SE
ALOS 4.0 09:47:37 10° NE 09:51:43 30° E 09:55:46 10° SSE
Delta 128 4.0 09:51:46 40° SSW 09:52:27 43° S 09:57:05 10° ESE
Cosmos 2341 Rocket 4.3 09:51:38 33° SW 09:54:04 48° W 10:00:05 10° N
Cosmos 1733 3.6 09:52:52 27° SSE 09:54:46 61° E 09:58:34 10° NNE
Cosmos 2218 Rocket 4.0 09:52:26 25° SSW 09:56:23 74° W 10:02:45 10° N
Cosmos 1766 4.1 09:54:22 18° SSE 09:57:00 46° E 10:00:45 10° NNE
SL-08 R/B 3.7 09:52:23 10° SSE 09:57:16 71° ENE 10:02:12 10° N
In-Cosmos 22 4.2 09:52:38 10° NNW 09:58:20 63° W 10:02:30 18° S
Cosmos 1300 Rocket 3.7 10:01:45 19° S 10:04:47 72° E 10:09:07 10° N
Meteor 1-15 Rocket 4.5 10:00:39 13° S 10:06:00 76° E 10:11:54 10° NNE
Cosmos 1844 4.5 10:07:38 10° S 10:12:56 48° ESE 10:18:16 10° NNE
Cosmos 1975 Rocket 2.9 10:10:25 10° N 10:14:48 74° W 10:19:07 10° S
Cosmos 1943 3.2 10:09:30 10° NNW 10:15:15 90° WSW 10:20:56 10° SSE
IDEFIX/ARIANE 42P 4.1 10:11:56 10° NNW 10:15:34 20° WNW 10:17:13 17° W
Cosmos 1340 2.6 10:13:29 10° NNW 10:17:10 60° W 10:20:00 16° S
Cosmos 1400 Rocket 2.9 10:16:10 28° SW 10:17:56 52° W 10:21:44 10° N
CZ-3B R/B 3.6 10:12:03 20° WSW 10:18:59 44° S 10:24:06 10° ESE
CZ-2C R/B 2.2 10:14:45 10° N 10:19:19 78° WNW 10:23:07 15° SSW
Cosmos 1626 2.0 10:17:32 10° N 10:21:13 88° E 10:24:53 10° S
Cosmos 1315 Rocket 3.9 10:21:39 10° SSE 10:25:34 46° E 10:29:29 10° NNE
Cosmos 1674 3.2 10:23:59 10° NNW 10:27:33 38° W 10:30:00 17° SSW
USA 215 3.7 10:23:41 10° NNE 10:29:58 52° NW 10:35:19 15° WSW
PSLV R/B 3.6 10:33:06 10° NNE 10:37:23 77° E 10:41:37 10° S
Cosmos 1850 Rocket 4.0 10:33:53 12° SSW 10:38:50 68° WNW 10:44:06 10° NNE
METEOR-M 4.4 10:35:07 10° NNE 10:40:28 73° ESE 10:45:47 10° S
ASTRO E2 2.7 10:40:22 14° W 10:43:43 67° S 10:47:40 10° E
Cosmos 468 Rocket 4.1 10:42:18 10° NNW 10:47:37 85° ENE 10:52:51 10° SSE
Cosmos 1025 Rocket 3.1 10:44:17 10° NNW 10:48:30 54° W 10:52:43 10° S
Iridium 51 4.4 10:45:26 10° SSW 10:48:43 41° W 10:52:01 10° NNW
Meteor 2-5 Rocket 4.0 10:42:58 10° N 10:48:54 79° E 10:54:42 10° S
Cosmos 1821 Rocket 4.0 10:43:14 10° SSW 10:49:20 64° W 10:55:25 10° N
Cosmos 44 3.6 10:45:37 10° NW 10:50:25 43° WSW 10:54:54 10° S
Cosmos 1844 Rocket 2.9 10:45:29 10° SSW 10:51:02 59° WNW 10:56:38 10° NNE
ARIANE 5 R/B 4.1 10:48:45 10° NNW 10:52:21 19° WNW 10:55:57 10° WSW
Okean 2 Rocket 3.8 10:55:10 10° SW 10:59:17 35° W 11:03:26 10° NNW
Aureole 1 Rocket 3.7 10:55:11 10° SSW 11:00:01 89° WNW 11:06:31 10° NNE
FENGYUN 3A 4.1 10:55:48 10° N 11:00:56 45° WNW 11:06:03 10° SW
CZ-2C R/B 3.8 10:59:00 10° NNW 11:02:11 27° WNW 11:05:23 10° SW
Cosmos 1603 4.4 10:57:41 10° NW 11:02:35 31° WSW 11:07:29 10° SSW
BREEZE M DEB (TANK) 2.3 11:01:16 10° SW 11:07:24 85° NW 11:09:59 10° NE
DNEPR-1 R/B 4.3 11:02:30 10° SW 11:08:16 57° WNW 11:13:04 10° NNE
MOS 1 Rocket 3.6 11:04:08 10° S 11:08:58 58° W 11:14:09 10° NNW
Cosmos 1758 3.5 11:06:49 10° S 11:10:45 79° E 11:14:43 10° N
Cosmos 1867 3.7 11:05:52 10° SW 11:11:15 67° WNW 11:16:42 10° NNE
